Regional Weather Roundup
Issued by NWS

Home | Current Version | Previous Version | Text Only | Print | Product List | Glossary On
Versions: 1 2 3 4 5 6 7 8 9 10 11 12 13 14 15 16 17 18 19 20 21 22 23 24 25 26 27 28 29 30 31 32 33 34 35 36 37 38 39 40 41 42 43 44 45 46 47 48 49 50
000
ASUS43 KLMK 262002
RWRKY
KENTUCKY REGIONAL WEATHER ROUNDUP
NATIONAL WEATHER SERVICE LOUISVILLE KY
400 PM EDT THU APR 26 2018

NOTE "FAIR" INDICATES FEW OR NO CLOUDS BELOW 12,000 FEET
WITH NO SIGNIFICANT WEATHER AND/OR OBSTRUCTIONS TO VISIBILITY.

KYZ001>023-026-027-061>063-070>075-262100-
WESTERN AND SOUTH CENTRAL KENTUCKY

CITY           SKY/WX    TMP DP  RH WIND       PRES   REMARKS
PADUCAH        CLOUDY    62  43  49 N7        29.90S
HENDERSON      FAIR      66  38  35 NW12      29.88F
OWENSBORO      FAIR      66  40  38 NW6G16    29.86F
HOPKINSVILLE   FAIR      57  52  83 NW5       29.88F
BOWLING GREEN  LGT RAIN  62  54  74 VRB5      29.87R
GLASGOW        NOT AVBL
$$

KYZ024-025-028>034-038-045-046-053-262100-
NORTH CENTRAL KENTUCKY

CITY           SKY/WX    TMP DP  RH WIND       PRES   REMARKS
LOUISVILLE/SDF PTSUNNY   70  41  34 CALM      29.83F
LOUISVILLE/LOU FAIR      67  42  40 W5        29.84F
FORT KNOX      FAIR      67  44  43 SE5       29.84F
$$

KYZ035>037-039>044-047>052-055>060-089>105-262100-
NORTHEAST KENTUCKY

CITY           SKY/WX    TMP DP  RH WIND       PRES   REMARKS
LEXINGTON      FAIR      67  47  48 CALM      29.85F
COVINGTON      PTSUNNY   67  34  29 NW3       29.84F
FRANKFORT      FAIR      66  42  41 S3        29.84F
$$

KYZ054-064>069-076>088-106>120-262100-
SOUTHEAST KENTUCKY

CITY           SKY/WX    TMP DP  RH WIND       PRES   REMARKS
JACKSON        PTSUNNY   63  44  50 CALM      29.86F
LONDON         CLOUDY    61  47  59 CALM      29.86F
SOMERSET       NOT AVBL
MIDDLESBORO    CLOUDY    59  43  55 CALM      29.87F
MONTICELLO     NOT AVBL
$$





USA.gov is the U.S. government's official web portal to all federal, state and local government web resources and services.